Weather History for Athens, OH

Change the Weather History Date:

Wednesday, January 1, 2014

  Actual Average (KPKB) Record (KPKB)
Temperature  
Mean Temperature 32 °F 32 °F  
Max Temperature 46 °F 40 °F 76 °F (1952)
Min Temperature 19 °F 24 °F -3 °F (1968)
Degree Days  
Heating Degree Days 32 33  
Month to date heating degree days 33  
Since 1 July heating degree days 1943  
Cooling Degree Days 0 0  
Month to date cooling degree days 0  
Year to date cooling degree days 0  
Moisture  
Dew Point 22 °F    
Average Humidity 71    
Maximum Humidity 92    
Minimum Humidity 38    
Precipitation  
Precipitation 0.00 in 0.10 in 0.84 in (2011)
Month to date precipitation 0.10  
Year to date precipitation 0.10  
Sea Level Pressure  
Sea Level Pressure 30.20 in    
Wind  
Wind Speed 1 mph (South)    
Max Wind Speed 8 mph    
Max Gust Speed -    
Visibility 10 miles    
Events      
T = Trace of Precipitation, MM = Missing Value Source: NWS Daily Summary

Daily Weather History Graph

Daily Weather History Graph

Search for Another Location

Airport:

Trip Planner

Search our weather history database for the weather conditions in past years. The results will help you decide how hot, cold, wet, or windy it might be!

Date:

Astronomy

Jan. 01, 2014 Rise Set
Actual Time 7:48 AM EST 5:16 PM EST
Civil Twilight 7:18 AM EST 5:46 PM EST
Nautical Twilight 6:44 AM EST 6:20 PM EST
Astronomical Twilight 6:12 AM EST 6:52 PM EST
Moon 7:38 AM EST (1/1) 5:59 PM EST (1/1)
Length of Visible Light 10h 28m
Length of Day
9h 28m
Waxing Crescent, 0% of the Moon is Illuminated
Jan 1
Waxing Crescent
Jan 7
First Quarter
Jan 15
Full
Jan 24
Last Quarter
Jan 30
New

Hourly Weather History & Observations

Time (EST) Temp. Windchill Dew Point Humidity Pressure Visibility Wind Dir Wind Speed Gust Speed Precip Events Conditions
12:15 AM 25.7 °F - 18.1 °F 73% 30.29 in 10.0 mi Calm Calm - N/A   Clear
12:35 AM 25.7 °F - 17.6 °F 71% 30.29 in 10.0 mi Calm Calm - N/A   Clear
12:55 AM 22.6 °F - 18.0 °F 82% 30.30 in 10.0 mi Calm Calm - N/A   Clear
1:15 AM 22.8 °F - 18.5 °F 83% 30.31 in 10.0 mi Calm Calm - N/A   Clear
1:35 AM 22.1 °F - 18.5 °F 86% 30.31 in 10.0 mi Calm Calm - N/A   Clear
1:55 AM 21.6 °F - 18.0 °F 86% 30.32 in 10.0 mi Calm Calm - N/A   Clear
2:15 AM 21.7 °F - 18.0 °F 85% 30.32 in 10.0 mi Calm Calm - N/A   Clear
2:35 AM 21.2 °F - 17.8 °F 87% 30.31 in 10.0 mi Calm Calm - N/A   Clear
2:55 AM 20.5 °F - 16.9 °F 86% 30.31 in 10.0 mi Calm Calm - N/A   Clear
3:15 AM 20.3 °F - 17.6 °F 89% 30.31 in 10.0 mi Calm Calm - N/A   Clear
3:35 AM 19.4 °F - 17.1 °F 91% 30.31 in 10.0 mi Calm Calm - N/A   Clear
3:55 AM 19.9 °F - 17.6 °F 91% 30.31 in 10.0 mi Calm Calm - N/A   Clear
4:15 AM 20.8 °F - 18.5 °F 91% 30.30 in 10.0 mi Calm Calm - N/A   Clear
4:35 AM 21.0 °F - 18.7 °F 91% 30.30 in 10.0 mi Calm Calm - N/A   Clear
4:55 AM 21.2 °F - 19.2 °F 92% 30.29 in 10.0 mi Calm Calm - N/A   Clear
5:15 AM 22.5 °F - 20.1 °F 91% 30.29 in 10.0 mi Calm Calm - N/A   Clear
5:35 AM 22.6 °F - 19.8 °F 89% 30.29 in 10.0 mi Calm Calm - N/A   Clear
5:55 AM 23.0 °F - 19.8 °F 87% 30.29 in 10.0 mi Calm Calm - N/A   Clear
6:15 AM 23.0 °F - 19.9 °F 88% 30.29 in 10.0 mi Calm Calm - N/A   Clear
6:35 AM 23.4 °F - 19.9 °F 87% 30.29 in 10.0 mi Calm Calm - N/A   Clear
6:55 AM 25.7 °F 21.5 °F 20.3 °F 80% 30.29 in 10.0 mi South 3.5 mph - N/A   Clear
7:15 AM 25.7 °F 20.1 °F 20.1 °F 79% 30.30 in 10.0 mi SSW 4.6 mph - N/A   Clear
7:35 AM 25.3 °F 21.1 °F 20.1 °F 81% 30.30 in 10.0 mi SSW 3.5 mph - N/A   Clear
7:55 AM 26.4 °F 22.4 °F 20.5 °F 78% 30.30 in 10.0 mi SSW 3.5 mph - N/A   Clear
8:15 AM 27.3 °F - 21.2 °F 78% 30.30 in 10.0 mi Calm Calm - N/A   Clear
8:35 AM 28.0 °F 24.2 °F 21.4 °F 76% 30.29 in 10.0 mi South 3.5 mph - N/A   Clear
8:55 AM 28.4 °F - 21.6 °F 76% 30.30 in 10.0 mi Calm Calm - N/A   Clear
9:15 AM 27.9 °F - 21.9 °F 78% 30.30 in 10.0 mi Calm Calm - N/A   Clear
9:35 AM 30.2 °F 26.7 °F 22.3 °F 72% 30.30 in 10.0 mi SSW 3.5 mph - N/A   Clear
9:55 AM 30.9 °F 27.5 °F 23.2 °F 73% 30.30 in 10.0 mi SW 3.5 mph - N/A   Clear
10:15 AM 32.4 °F 27.9 °F 23.9 °F 71% 30.30 in 10.0 mi South 4.6 mph - N/A   Clear
10:35 AM 33.8 °F 29.6 °F 23.9 °F 67% 30.29 in 10.0 mi South 4.6 mph - N/A   Clear
10:55 AM 36.3 °F 30.8 °F 24.6 °F 63% 30.28 in 10.0 mi South 6.9 mph - N/A   Clear
11:15 AM 38.7 °F 34.3 °F 24.8 °F 58% 30.27 in 10.0 mi South 5.8 mph - N/A   Clear
11:35 AM 40.3 °F 34.9 °F 24.1 °F 52% 30.25 in 10.0 mi South 8.1 mph - N/A   Clear
11:55 AM 41.2 °F 37.3 °F 24.4 °F 51% 30.23 in 10.0 mi South 5.8 mph - N/A   Clear
12:15 PM 41.9 °F 38.2 °F 23.9 °F 49% 30.22 in 10.0 mi South 5.8 mph - N/A   Clear
12:35 PM 43.0 °F 40.3 °F 25.0 °F 49% 30.20 in 10.0 mi South 4.6 mph - N/A   Clear
12:55 PM 43.3 °F 41.7 °F 23.5 °F 46% 30.19 in 10.0 mi South 3.5 mph - N/A   Clear
1:15 PM 44.1 °F 41.5 °F 23.7 °F 45% 30.18 in 10.0 mi South 4.6 mph - N/A   Clear
1:35 PM 45.0 °F - 24.3 °F 44% 30.17 in 10.0 mi Calm Calm - N/A   Clear
1:55 PM 46.0 °F 41.9 °F 23.7 °F 42% 30.16 in 10.0 mi WSW 8.1 mph - N/A   Clear
2:15 PM 46.2 °F 44.1 °F 24.1 °F 42% 30.15 in 10.0 mi SW 4.6 mph - N/A   Clear
2:35 PM 46.4 °F 44.3 °F 23.0 °F 40% 30.14 in 10.0 mi SSW 4.6 mph - N/A   Clear
2:55 PM 46.4 °F 44.3 °F 22.8 °F 39% 30.13 in 10.0 mi South 4.6 mph - N/A   Clear
3:15 PM 46.6 °F - 22.5 °F 39% 30.12 in 10.0 mi SSE 4.6 mph - N/A   Clear
3:35 PM 46.4 °F 45.2 °F 21.9 °F 38% 30.12 in 10.0 mi SSW 3.5 mph - N/A   Clear
3:55 PM 46.8 °F - 22.3 °F 38% 30.12 in 10.0 mi South 5.8 mph - N/A   Clear
4:15 PM 46.0 °F 43.9 °F 22.6 °F 40% 30.11 in 10.0 mi South 4.6 mph - N/A   Clear
4:35 PM 45.5 °F 44.2 °F 23.0 °F 41% 30.10 in 10.0 mi SE 3.5 mph - N/A   Clear
4:55 PM 43.9 °F 42.3 °F 23.4 °F 44% 30.09 in 10.0 mi SSE 3.5 mph - N/A   Clear
5:15 PM 41.2 °F 39.2 °F 23.7 °F 50% 30.09 in 10.0 mi SSE 3.5 mph - N/A   Clear
5:35 PM 40.1 °F - 23.7 °F 52% 30.09 in 10.0 mi Calm Calm - N/A   Clear
5:55 PM 37.2 °F - 24.3 °F 60% 30.10 in 10.0 mi Calm Calm - N/A   Clear
6:15 PM 34.3 °F - 24.6 °F 68% 30.11 in 10.0 mi Calm Calm - N/A   Clear
6:35 PM 32.9 °F - 24.6 °F 72% 30.11 in 10.0 mi Calm Calm - N/A   Clear
6:55 PM 32.0 °F - 25.3 °F 76% 30.11 in 10.0 mi Calm Calm - N/A   Clear
7:15 PM 33.3 °F - 26.1 °F 75% 30.11 in 10.0 mi Calm Calm - N/A   Clear
7:35 PM 32.2 °F - 25.7 °F 77% 30.11 in 10.0 mi Calm Calm - N/A   Clear
7:55 PM 32.4 °F - 26.2 °F 78% 30.10 in 10.0 mi Calm Calm - N/A   Clear
8:15 PM 32.7 °F - 25.9 °F 76% 30.09 in 10.0 mi Calm Calm - N/A   Clear
8:35 PM 32.2 °F - 26.2 °F 79% 30.08 in 10.0 mi Calm Calm - N/A   Clear
8:55 PM 32.0 °F - 26.8 °F 81% 30.08 in 10.0 mi Calm Calm - N/A   Clear
9:15 PM 31.5 °F - 26.6 °F 82% 30.07 in 10.0 mi Calm Calm - N/A   Clear
9:35 PM 32.0 °F - 26.6 °F 80% 30.07 in 10.0 mi Calm Calm - N/A   Clear
9:55 PM 31.6 °F - 26.1 °F 80% 30.06 in 10.0 mi Calm Calm - N/A   Clear
10:15 PM 30.9 °F - 26.4 °F 83% 30.06 in 10.0 mi Calm Calm - N/A   Clear
10:35 PM 30.2 °F - 26.2 °F 85% 30.06 in 10.0 mi Calm Calm - N/A   Clear
10:55 PM 31.1 °F - 26.6 °F 83% 30.05 in 10.0 mi Calm Calm - N/A   Clear
11:15 PM 31.1 °F - 26.6 °F 83% 30.04 in 10.0 mi Calm Calm - N/A   Clear
11:35 PM 30.7 °F - 26.6 °F 85% 30.04 in 10.0 mi Calm Calm - N/A   Clear
11:55 PM 30.4 °F - 26.4 °F 85% 30.03 in 10.0 mi Calm Calm - N/A   Scattered Clouds